Hourly Data Report for October 27, 2012

All times are specified in Local Standard Time (LST). Add 1 hour to adjust for Daylight Saving Time where and when it is observed.

ST LEONARD CS
NEW BRUNSWICK

47°09'28.050" N
67°49'55.014" W
245.00 m
810I001
71019
WIY

Download Data

Hourly Data (October 2012)
Hourly Data Report for October 27, 2012
Temp Definition
°C
Dew Point Temp Definition
°C
Rel Hum Definition
%
Wind Dir Definition
10's deg

Wind Spd Definition
km/h
Visibility Definition
km
Stn Press Definition
kPa
Hmdx Definition


Wind Chill Definition


Weather Definition


TIME
00:00 4.3 1.6 83 9 2   99.03     LegendNANA
01:00 3.6 1.3 85   0   99.05     LegendNANA
02:00 3.6 1.3 85   0   99.03     LegendNANA
03:00 2.7 0.9 88   0   99.06     LegendNANA
04:00 2.7 1.1 89 9 2   99.05     LegendNANA
05:00 2.8 1.0 88 36 4   99.07     LegendNANA
06:00 2.2 0.8 90 32 2   99.06     LegendNANA
07:00 2.2 0.4 88 3 2   99.08     LegendNANA
08:00 4.0 1.3 83   0   99.12     LegendNANA
09:00 8.1 2.4 67 34 2   99.12     LegendNANA
10:00 13.1 4.1 54 32 2   99.11     LegendNANA
11:00 15.1 5.4 52 24 2   99.10     LegendNANA
12:00 16.6 5.6 48   0   99.04     LegendNANA
13:00 19.3 5.6 41 13 4   99.00     LegendNANA
14:00 19.7 5.9 40 17 7   98.97     LegendNANA
15:00 19.6 5.7 40 14 6   98.94     LegendNANA
16:00 19.0 5.2 40 17 4   98.94     LegendNANA
17:00 17.7 5.7 45   0   98.95     LegendNANA
18:00 12.4 7.4 72 8 4   98.98     LegendNANA
19:00 11.4 5.5 67 8 4   99.02     LegendNANA
20:00 11.9 3.5 56 10 9   99.06     LegendNANA
21:00 10.8 0.4 49 11 7   99.13     LegendNANA
22:00 9.9 0.2 51 11 11   99.16     LegendNANA
23:00 8.4 1.5 62 11 7   99.17     LegendNANA

Notes on Data Quality.

Legend

  • E = Estimated
  • M = Missing
  • NA = Not Available
  • ‡ = Partner data that is not subject to review by the National Climate Archives
Date modified: